Tracking 27112 objects as of 27-Mar-2023
HD Live streaming from Space Station
objects crossing your sky now

BREEZE-M R/B

Track BREEZE-M R/B now!


NORAD ID: 28869
Int'l Code: 2005-036B
Perigee: 3,209.2 km
Apogee: 35,445.5 km
Inclination: 10.3 °
Period: 683.3 minutes
Semi major axis: 25698 km
RCS: 6.7821 m2 (large)
Launch date: September 8, 2005
Source: Commonwealth of Independent States (former USSR) (CIS)
Launch site: TYURATAM MISSILE AND SPACE COMPLEX (TTMTR)

Note: This is a ROCKET BODY
Your satellite tracking list
Your tracking list is empty




NASA's NSSDC Master Catalog

Two Line Element Set (TLE):
1 28869U 05036B   23085.95456958 -.00000277  00000-0  00000-0 0  9993
2 28869  10.2577  60.0431 6272066  87.8312 337.9810  2.10739575135042
Source of the keplerian elements: AFSPC